Tracking 19281 objects as of 16-Nov-2018
HD Live streaming from Space Station
objects crossing your sky now

IRIDIUM 46

Track IRIDIUM 46 now!
10-day predictions
IRIDIUM 46 is classified as:


NORAD ID: 24905
Int'l Code: 1997-043C
Perigee: 262.6 km
Apogee: 546.7 km
Inclination: 86.4 °
Period: 92.5 minutes
Semi major axis: 6775 km
RCS: 3.9325 m2 (large)
Launch date: August 21, 1997
Source: United States (US)
Launch site: AIR FORCE WESTERN TEST RANGE (AFWTR)
aabbcc
Your satellite tracking list
Your tracking list is empty




NASA's NSSDC Master Catalog

Two Line Element Set (TLE):
1 24905U 97043C   18320.19830108  .00083025  41358-6  40882-3 0  9997
2 24905  86.3805  18.4290 0209656  29.8734 331.4299 15.56596335114787
Source of the keplerian elements: AFSPC